This is the latest recevied weather packets stored in our database for station/object KE7TOP-15. If no packets are shown the sender has not sent any weather packets the latest 10 day(s).
| Time | Temp. | Humidity | Pressure | Rain* | Wind** | Luminosity | Snow |
|---|---|---|---|---|---|---|---|
| 1777775420 | 11.11° C | 78% | 1016.9 hPa | 0 mm | - | 1 W/m² | - |
| 1777774819 | 10.56° C | 80% | 1016.9 hPa | 0.25 mm | - | 5 W/m² | - |
| 1777773615 | 10.56° C | 82% | 1016.3 hPa | 1.02 mm | - | 49 W/m² | - |
| 1777770617 | 11.11° C | 75% | 1017.3 hPa | 1.27 mm | - | 4 W/m² | - |
| 1777768243 | 15.56° C | 55% | 1016 hPa | 0.51 mm | - | 19 W/m² | - |
| 1777761023 | 16.67° C | 36% | 1016 hPa | 0 mm | - | 21 W/m² | - |
| 1777758019 | 18.89° C | 29% | 1016 hPa | 0 mm | - | 89 W/m² | - |
| 1777756216 | 18.89° C | 29% | 1016.4 hPa | 0 mm | - | 210 W/m² | - |
| 1777755015 | 18.33° C | 29% | 1016.7 hPa | 0 mm | - | 118 W/m² | - |
| 1777751421 | 19.44° C | 25% | 1016.7 hPa | 0 mm | - | 205 W/m² | - |
| 1777749617 | 20° C | 24% | 1016.7 hPa | 0 mm | - | 210 W/m² | - |
| 1777749037 | 19.44° C | 25% | 1016.7 hPa | 0 mm | - | 242 W/m² | - |
| 1777747815 | 19.44° C | 24% | 1016.8 hPa | 0 mm | - | 275 W/m² | - |
| 1777742416 | 18.33° C | 28% | 1017.2 hPa | 0 mm | - | 296 W/m² | - |
| 1777737619 | 16.67° C | 40% | 1017.3 hPa | 0 mm | - | 443 W/m² | - |
| 1777731616 | 7.22° C | 70% | 1017.1 hPa | 0 mm | - | 86 W/m² | - |
| 1777728622 | 5.56° C | 70% | 1016.5 hPa | 0 mm | - | 21 W/m² | - |
| 1777727461 | 5.56° C | 69% | 1016.5 hPa | 0 mm | - | 4 W/m² | - |
| 1777725617 | 5.56° C | 71% | 1016.5 hPa | 0 mm | - | 0 W/m² | - |
| 1777724423 | 5° C | 70% | 1016.5 hPa | 0 mm | - | 0 W/m² | - |
| 1777723821 | 5° C | 70% | 1016.4 hPa | 0 mm | - | 0 W/m² | - |
| 1777723220 | 5° C | 68% | 1016.6 hPa | 0 mm | - | 0 W/m² | - |
| 1777717519 | 6.67° C | 63% | 1016.5 hPa | 0 mm | - | 0 W/m² | - |
| 1777716938 | 6.67° C | 63% | 1016.5 hPa | 0 mm | - | 0 W/m² | - |
| 1777715716 | 6.67° C | 63% | 1016.5 hPa | 0 mm | - | 0 W/m² | - |
* Rain latest hour (hover to see other rain measurements)
** Current wind speed in m/s (hover to see current wind gust speed)